Date,TemperatureHighF,TemperatureAvgF,TemperatureLowF,DewpointHighF,DewpointAvgF,DewpointLowF,HumidityHigh,HumidityAvg,HumidityLow,PressureMaxIn,PressureMinIn,WindSpeedMaxMPH,WindSpeedAvgMPH,GustSpeedMaxMPH,PrecipitationSumIn
2014-1-1,16.0,15.2,14.0,14.8,13.8,12.4,97,94,92,30.53,30.50,0,0,0,0.00
2014-1-2,16.0,11.1,-1.0,16.0,11.0,-1.0,100,100,95,30.53,30.09,2,0,2,0.00
2014-1-3,-1.0,-1.0,-1.0,-1.0,-1.0,-1.0,100,100,100,30.10,30.01,0,0,0,0.00
2014-1-4,-1.0,-1.0,-1.0,-1.0,-1.0,-1.0,100,100,100,30.02,30.02,0,0,0,0.00
2014-1-5,-1.0,-1.0,-1.0,-1.0,-1.0,-1.0,100,100,100,30.02,30.02,0,0,0,0.00
2014-1-6,46.0,27.8,-1.0,32.0,19.3,-1.0,100,74,58,30.02,29.37,6,0,6,1.17
2014-1-8,21.0,14.1,3.0,8.3,3.7,-0.7,84,64,44,30.63,30.49,7,0,7,1.35
2014-1-9,15.0,12.2,8.0,9.0,7.0,5.1,100,80,67,30.80,30.58,2,0,2,0.00
2014-1-10,34.0,29.9,7.0,32.0,28.0,7.0,100,91,87,30.80,30.16,0,0,0,0.00
2014-1-11,56.0,43.8,32.0,33.0,28.4,21.0,89,57,29,30.16,29.08,7,0,15,0.34
2014-1-12,51.0,40.7,31.0,38.0,29.4,21.0,93,65,40,29.87,29.10,10,1,10,0.09
2014-1-13,52.0,39.0,25.0,43.0,31.6,26.0,100,78,38,30.03,29.73,8,0,10,0.00
2014-1-14,47.0,44.4,39.0,44.0,32.8,18.0,92,66,40,29.73,29.50,9,0,14,0.59
2014-1-15,50.0,37.1,29.0,43.0,27.4,16.0,97,69,39,29.92,29.62,5,0,6,0.01
2014-1-16,37.0,32.6,28.0,24.0,17.4,16.0,83,54,43,29.83,29.73,0,0,0,0.00
2014-1-17,46.0,35.3,28.0,38.0,21.7,14.0,97,58,42,29.88,29.72,7,0,7,0.00
2014-1-18,32.0,30.0,27.0,29.0,23.2,16.0,98,77,51,29.83,29.53,0,0,0,0.00
2014-1-19,30.0,28.3,26.0,31.0,20.9,14.0,100,74,50,29.63,29.44,8,0,10,0.00
2014-1-20,42.0,32.1,20.0,35.0,26.6,11.0,100,80,51,29.82,29.33,10,0,10,0.31
2014-1-21,20.0,11.6,7.0,14.0,6.1,0.0,100,76,48,30.05,29.81,4,0,4,0.00
2014-1-22,17.0,8.3,3.0,8.0,1.6,-6.0,100,70,42,29.89,29.60,5,0,5,0.00
2014-1-23,22.0,8.2,-3.0,4.0,-0.2,-6.0,96,64,31,30.16,29.88,8,0,12,0.00
2014-1-24,19.0,8.5,1.0,4.0,0.1,-6.0,98,65,32,30.27,30.00,8,0,9,0.00
2014-1-25,34.0,21.9,10.0,29.0,16.4,0.0,100,78,55,30.00,29.26,14,1,14,0.01
2014-1-26,21.0,16.3,10.0,21.0,5.7,-6.0,100,59,33,29.83,29.27,9,1,11,0.00
2014-1-27,43.0,23.9,15.0,41.0,16.6,4.0,100,74,37,29.94,29.37,11,0,14,0.14
2014-1-28,19.0,12.8,7.0,4.0,-1.8,-6.0,63,48,29,30.26,29.94,9,0,9,0.00
2014-1-29,26.0,16.5,11.0,11.0,1.4,-6.0,83,49,23,30.20,29.86,8,0,8,0.00
2014-1-30,31.0,17.9,7.0,14.0,5.5,0.0,86,56,34,30.41,30.14,6,0,7,0.00
2014-1-31,41.0,29.2,14.0,23.0,17.9,11.0,100,64,31,30.14,29.85,7,0,7,0.02
2014-2-1,48.0,35.3,25.0,33.0,24.5,21.0,100,66,35,30.26,29.94,6,0,6,0.02
2014-2-2,53.0,37.8,29.0,45.0,31.9,23.0,100,80,54,29.95,29.67,3,0,3,0.06
2014-2-3,35.0,28.7,18.0,31.0,26.2,18.0,100,90,68,30.25,29.95,0,0,3,0.00
2014-2-4,39.0,24.9,13.0,31.0,20.8,14.0,100,84,49,30.40,30.21,4,0,4,0.11
2014-2-5,27.0,23.9,21.0,28.0,21.8,16.0,100,91,79,30.22,29.59,0,0,0,0.00
2014-2-6,31.0,18.6,11.0,23.0,14.4,8.0,100,83,42,30.21,29.89,3,0,3,0.11
2014-2-7,31.0,17.7,4.0,21.0,10.5,4.0,100,73,41,30.24,30.02,8,0,10,0.08
2014-2-8,33.0,20.5,7.0,11.0,6.4,4.0,84,53,30,30.27,30.02,5,0,5,0.03
2014-2-9,34.0,23.7,16.0,24.0,16.0,8.0,100,72,43,30.14,29.88,5,0,6,0.05
2014-2-10,30.0,19.4,10.0,26.0,13.3,4.0,100,76,42,30.19,29.85,9,0,9,0.06
2014-2-11,27.0,12.5,-1.0,16.0,5.1,0.0,100,72,35,30.44,30.12,7,0,7,0.00
2014-2-12,31.0,13.6,-3.0,8.0,1.0,-6.0,100,58,19,30.56,30.36,5,0,5,0.02
2014-2-13,31.0,22.0,12.0,24.0,15.9,4.0,100,76,55,30.39,28.95,0,0,0,0.00
2014-2-14,32.0,29.5,25.0,32.0,23.1,14.0,100,78,56,29.65,28.75,0,0,0,0.00
2014-2-15,33.0,26.3,21.0,31.0,22.9,14.0,100,86,55,29.77,29.42,0,0,0,0.00
2014-2-16,32.0,23.5,17.0,23.0,15.4,11.0,100,70,45,29.93,29.42,3,0,3,0.08
2014-2-17,32.0,17.1,6.0,11.0,1.8,0.0,75,49,24,30.36,29.93,8,0,9,0.05
2014-2-18,24.0,13.6,1.0,23.0,12.9,0.0,100,92,72,30.37,29.85,1,0,1,0.00
2014-2-19,33.0,25.1,15.0,33.0,23.3,16.0,100,90,68,30.05,29.65,0,0,0,0.00
2014-2-20,50.0,36.3,27.0,39.0,23.2,14.0,100,59,36,30.11,29.75,5,0,5,1.18
2014-2-21,38.0,34.5,32.0,26.0,18.3,16.0,77,51,41,30.06,29.57,2,0,3,0.56
2014-2-22,53.0,40.1,30.0,41.0,23.0,16.0,89,51,29,29.85,29.63,16,1,16,0.20
2014-2-23,48.0,38.7,29.0,33.0,26.5,24.0,97,63,41,29.89,29.65,6,0,7,0.00
2014-2-24,37.0,29.4,19.0,28.0,14.7,8.0,73,52,38,29.90,29.63,10,1,11,0.00
2014-2-25,28.0,20.0,11.0,16.0,9.1,4.0,82,59,35,29.94,29.79,10,1,13,0.00
2014-2-26,31.0,16.1,7.0,14.0,5.5,-6.0,100,63,28,29.92,29.65,10,0,10,0.00
2014-2-27,29.0,15.3,4.0,23.0,4.9,-6.0,95,61,27,29.88,29.48,10,0,10,0.00
2014-2-28,27.0,12.9,3.0,0.0,-4.3,-13.0,67,44,19,30.44,29.88,7,0,9,0.00
2014-3-1,35.0,18.6,-3.0,21.0,7.2,-6.0,95,61,30,30.46,29.99,11,0,11,0.00
2014-3-2,41.0,31.9,25.0,29.0,21.4,16.0,92,64,46,29.99,29.82,4,0,4,0.00
2014-3-3,25.0,17.5,5.0,16.0,6.0,0.0,76,56,40,30.30,29.92,6,0,7,0.00
2014-3-4,28.0,15.9,-2.0,8.0,2.0,-6.0,100,55,23,30.39,30.14,5,0,6,0.00
2014-3-5,26.0,20.1,11.0,23.0,16.6,8.0,100,85,51,30.48,30.18,2,0,3,0.00
2014-3-6,35.0,16.1,1.0,11.0,0.9,-6.0,94,54,17,30.64,30.41,3,0,4,0.00
2014-3-7,42.0,22.1,-2.0,26.0,11.3,0.0,100,65,31,30.50,29.88,7,0,8,0.00
2014-3-8,58.0,35.9,17.0,29.0,24.5,18.0,100,68,29,29.87,29.45,6,0,6,0.00
2014-3-9,44.0,31.7,22.0,23.0,12.4,4.0,70,45,21,29.88,29.68,5,0,10,0.00
2014-3-10,44.0,33.7,26.0,28.0,21.2,11.0,99,61,42,29.84,29.55,3,0,3,0.00
2014-3-11,40.0,34.2,30.0,38.0,29.1,23.0,98,81,52,29.57,29.41,0,0,0,0.00
2014-3-12,44.0,39.5,35.0,37.0,32.9,28.0,86,76,66,29.59,29.31,0,0,0,0.00
2014-3-13,22.0,17.0,13.0,16.0,10.9,4.0,100,76,60,29.91,29.22,3,0,3,0.00
2014-3-14,17.0,13.1,7.0,11.0,7.8,4.0,91,73,63,30.12,29.91,0,0,0,0.00
2014-3-15,56.0,47.5,35.0,42.0,32.1,21.0,93,58,35,29.76,29.43,10,1,10,0.01
2014-3-16,35.0,28.1,19.0,21.0,9.0,0.0,88,44,21,30.15,29.76,10,1,12,0.00
2014-3-17,34.0,20.4,13.0,8.0,1.3,0.0,58,40,21,30.17,29.91,4,0,4,0.00
2014-3-18,44.0,24.5,8.0,18.0,9.0,0.0,88,54,19,30.29,30.10,6,0,7,0.00
2014-3-19,45.0,30.2,16.0,32.0,23.9,16.0,100,79,43,30.36,29.90,9,0,9,0.00
2014-3-20,49.0,38.4,32.0,43.0,27.4,16.0,95,65,32,29.91,29.42,10,0,10,0.55
2014-3-21,41.0,35.8,28.0,26.0,23.1,21.0,76,58,44,29.95,29.62,8,1,12,0.00
2014-3-22,54.0,35.6,23.0,40.0,25.6,21.0,100,69,36,29.99,29.45,14,0,15,0.01
2014-3-23,43.0,33.4,20.0,26.0,17.1,4.0,82,52,25,30.04,29.76,9,0,9,0.00
2014-3-24,33.0,21.4,10.0,8.0,2.0,0.0,63,41,21,30.15,29.92,9,0,10,0.00
2014-3-25,39.0,26.1,11.0,16.0,9.8,4.0,89,50,27,30.12,29.86,8,0,9,0.00
2014-3-26,34.0,27.8,20.0,21.0,11.7,0.0,71,50,27,29.98,29.52,13,1,15,0.00
2014-3-27,43.0,29.9,16.0,14.0,5.0,0.0,50,33,17,30.26,29.98,8,1,10,0.00
2014-3-28,53.0,43.2,34.0,47.0,28.3,14.0,92,56,35,30.13,29.76,11,0,13,0.01
2014-3-29,55.0,44.1,37.0,47.0,34.3,18.0,93,70,38,30.09,29.84,3,0,7,0.58
2014-3-30,39.0,37.2,34.0,23.0,21.0,16.0,58,50,41,29.88,29.53,7,0,8,1.75
2014-3-31,40.0,34.9,32.0,35.0,26.0,21.0,90,69,47,29.91,29.60,7,0,7,1.02
2014-4-1,60.0,42.2,27.0,39.0,30.9,24.0,93,68,33,29.99,29.76,5,0,5,0.00
2014-4-2,61.0,42.3,27.0,39.0,31.2,26.0,97,69,38,30.05,29.77,6,0,7,0.00
2014-4-3,60.0,42.9,28.0,35.0,26.4,21.0,95,58,26,30.03,29.80,5,0,6,0.00
2014-4-4,53.0,39.4,31.0,36.0,29.4,23.0,94,69,38,30.06,29.79,10,0,11,0.20
2014-4-5,52.0,40.4,34.0,45.0,24.9,16.0,84,54,30,29.83,29.51,12,0,15,0.12
2014-4-6,59.0,42.8,29.0,28.0,22.3,16.0,85,49,19,30.06,29.83,7,0,7,0.00
2014-4-7,61.0,46.2,30.0,38.0,25.9,18.0,92,50,23,30.13,29.79,9,0,10,0.03
2014-4-8,65.0,50.4,41.0,57.0,29.2,8.0,82,47,12,29.79,29.05,13,0,15,0.41
2014-4-9,60.0,45.9,35.0,43.0,27.8,11.0,93,54,23,29.86,29.37,9,0,13,0.00
2014-4-10,64.0,45.9,26.0,32.0,21.4,11.0,84,42,14,30.05,29.77,18,1,18,0.00
2014-4-11,73.0,56.1,47.0,53.0,39.8,32.0,85,56,33,29.86,29.63,25,0,25,0.10
2014-4-12,70.0,54.8,40.0,51.0,30.0,16.0,84,41,23,30.05,29.81,6,0,8,0.05
2014-4-13,61.0,47.9,41.0,51.0,40.3,24.0,90,76,40,30.14,29.83,4,0,4,0.03
2014-4-14,78.0,59.5,39.0,62.0,45.5,14.0,88,62,17,29.90,29.59,13,1,17,0.00
2014-4-15,65.0,59.6,40.0,59.0,19.8,-23.0,87,35,1,29.66,29.31,18,2,19,0.61
2014-4-16,47.0,35.2,27.0,28.0,19.0,8.0,93,52,27,30.54,29.59,10,0,11,0.37
2014-4-17,47.0,33.0,22.0,26.0,22.8,18.0,99,68,36,30.72,30.54,8,0,8,0.00
2014-4-18,51.0,35.9,22.0,37.0,28.7,18.0,99,76,45,30.59,30.14,5,0,7,0.00
2014-4-19,66.0,46.8,30.0,43.0,29.2,18.0,92,54,28,30.29,29.93,9,0,9,0.00
2014-4-20,60.0,44.5,29.0,37.0,24.3,14.0,98,51,20,30.42,30.18,9,0,9,0.00
2014-4-21,74.0,53.0,31.0,40.0,25.9,14.0,97,46,12,30.22,29.62,10,0,10,0.00
2014-4-22,78.0,59.9,44.0,55.0,39.8,28.0,91,52,24,29.65,29.17,5,0,7,0.02
2014-4-23,55.0,50.3,45.0,51.0,36.4,21.0,90,61,30,29.48,29.25,12,0,13,0.28
2014-4-24,61.0,48.2,38.0,35.0,25.4,18.0,66,41,24,29.78,29.47,20,1,20,0.00
2014-4-25,68.0,52.6,36.0,32.0,26.2,16.0,71,39,16,29.89,29.58,9,0,9,0.00
2014-4-26,52.0,43.7,40.0,40.0,23.6,14.0,92,47,27,29.74,29.61,5,0,6,0.30
2014-4-27,56.0,43.5,39.0,52.0,26.3,8.0,92,56,18,29.92,29.71,5,0,5,0.22
2014-4-28,64.0,48.8,36.0,46.0,37.6,26.0,93,68,37,30.07,29.75,6,0,6,0.00
2014-4-29,46.0,41.8,38.0,44.0,39.6,36.0,95,92,75,30.41,30.07,8,0,8,0.00
2014-4-30,45.0,40.1,38.0,43.0,24.2,8.0,94,55,24,30.42,30.05,11,0,11,0.57
2014-5-1,64.0,52.2,40.0,50.0,13.8,-40.0,62,27,1,30.05,29.43,5,0,5,0.70
2014-5-2,67.0,55.9,45.0,54.0,19.0,-40.0,84,34,1,29.63,29.41,5,0,5,0.00
2014-5-3,68.0,56.5,45.0,50.0,42.9,35.0,87,64,32,29.69,29.47,5,0,5,0.00
2014-5-4,61.0,53.1,47.0,49.0,41.6,32.0,86,67,37,29.52,29.32,12,1,13,0.00
2014-5-5,65.0,54.4,45.0,49.0,42.3,38.0,88,67,37,29.72,29.46,8,0,9,0.00
2014-5-6,67.0,52.5,39.0,47.0,33.0,24.0,89,52,26,29.90,29.57,9,0,10,0.00
2014-5-7,72.0,55.7,39.0,36.0,27.4,21.0,70,37,16,30.02,29.84,6,0,7,0.00
2014-5-8,75.0,58.0,38.0,55.0,39.9,28.0,90,56,23,30.06,29.75,7,0,8,0.00
2014-5-9,56.0,52.2,50.0,52.0,36.1,0.0,88,62,10,30.06,29.91,2,0,2,0.00
2014-5-10,80.0,61.6,51.0,68.0,-5.6,-40.0,80,15,1,29.91,29.45,7,0,7,0.09
2014-5-11,81.0,68.2,58.0,56.0,35.5,-23.0,84,36,1,29.81,29.56,7,0,7,0.00
2014-5-12,87.0,71.6,55.0,53.0,41.1,37.0,72,37,18,29.90,29.61,9,0,9,0.00
2014-5-13,59.0,50.1,44.0,49.0,44.1,33.0,87,80,53,30.18,29.87,7,0,7,0.01
2014-5-14,76.0,57.5,43.0,56.0,45.2,33.0,87,67,30,30.18,29.94,8,0,8,0.01
2014-5-15,79.0,66.7,59.0,69.0,52.8,-23.0,85,66,1,30.06,29.90,12,0,12,0.00
2014-5-16,69.0,64.6,62.0,61.0,-6.3,-23.0,78,11,1,29.96,29.72,14,1,14,0.20
2014-5-17,76.0,64.4,51.0,59.0,14.7,-23.0,73,27,1,29.89,29.59,14,0,14,0.46
2014-5-18,72.0,57.7,44.0,50.0,38.6,32.0,78,52,30,29.96,29.75,3,0,5,0.00
2014-5-19,69.0,56.3,46.0,47.0,39.3,35.0,76,55,29,29.94,29.75,8,0,9,0.00
2014-5-20,80.0,62.2,48.0,50.0,41.9,36.0,76,52,24,29.85,29.62,6,0,7,0.00
2014-5-21,79.0,60.7,45.0,59.0,36.3,-40.0,77,47,2,29.85,29.59,10,0,10,0.00
2014-5-22,66.0,56.3,49.0,58.0,-6.6,-40.0,77,23,1,29.75,29.61,7,0,7,0.26
2014-5-23,59.0,55.5,51.0,33.0,-28.6,-40.0,40,4,1,29.81,29.67,1,0,4,0.03
2014-5-24,65.0,55.8,51.0,56.0,-10.5,-40.0,75,20,1,29.87,29.74,3,0,3,0.10
2014-5-25,76.0,60.3,52.0,63.0,-0.7,-40.0,74,25,1,29.89,29.72,5,0,5,0.07
2014-5-26,77.0,65.4,54.0,64.0,24.1,-40.0,75,42,1,29.79,29.51,3,0,4,0.00
2014-5-27,76.0,58.8,47.0,66.0,19.7,-40.0,73,33,1,29.81,29.57,2,0,4,0.30
2014-5-28,49.0,46.7,42.0,-40.0,-40.0,-40.0,0,0,100,30.08,29.75,3,0,3,0.07
2014-5-29,73.0,53.2,38.0,53.0,9.3,-40.0,73,32,32,30.11,29.90,8,0,8,0.00
2014-5-30,76.0,58.4,44.0,59.0,21.1,-40.0,71,38,1,29.98,29.69,3,0,4,0.04
2014-5-31,69.0,55.9,44.0,57.0,7.3,-40.0,75,36,12,30.15,29.87,4,0,6,0.01
2014-6-1,83.0,61.3,41.0,63.0,26.6,-40.0,73,33,1,30.19,29.92,7,0,7,0.00
2014-6-2,86.0,67.9,49.0,60.0,46.0,21.0,73,48,27,30.03,29.69,4,0,4,0.00
2014-6-3,86.0,68.9,55.0,68.0,42.4,-40.0,71,45,2,29.79,29.55,8,0,9,0.00
2014-6-4,66.0,60.2,54.0,53.0,4.9,-40.0,73,22,2,29.70,29.53,6,0,7,0.10
2014-6-5,62.0,58.1,56.0,-23.0,-32.5,-40.0,0,0,100,29.59,29.44,0,0,0,0.30
2014-6-6,76.0,62.8,54.0,63.0,13.3,-40.0,68,34,2,29.67,29.47,5,0,6,0.05
2014-6-7,87.0,68.9,53.0,66.0,35.4,-40.0,69,40,1,29.73,29.54,3,0,4,0.00
2014-6-8,88.0,71.0,55.0,70.0,33.1,-40.0,68,35,1,29.74,29.54,4,0,4,0.00
2014-6-9,82.0,67.7,59.0,68.0,41.9,-23.0,69,45,1,29.75,29.62,5,0,5,0.00
2014-6-10,83.0,67.6,60.0,70.0,18.3,-23.0,67,24,2,29.90,29.60,4,0,4,0.00
2014-6-11,73.0,62.5,54.0,62.0,25.9,-40.0,74,43,1,29.96,29.88,6,0,8,0.00
2014-6-12,68.0,61.1,56.0,50.0,16.2,-40.0,66,26,1,29.96,29.82,6,0,6,0.00
2014-6-13,62.0,59.6,58.0,-23.0,-25.3,-40.0,0,0,100,29.84,29.58,3,0,3,0.40
2014-6-14,74.0,62.9,56.0,44.0,-12.5,-40.0,49,10,1,29.72,29.53,5,0,5,0.02
2014-6-15,83.0,65.7,52.0,65.0,34.9,-40.0,72,43,1,29.85,29.64,7,0,7,0.01
2014-6-16,86.0,67.7,52.0,62.0,46.9,23.0,72,50,25,29.95,29.71,5,0,5,0.00
2014-6-17,88.0,74.5,63.0,72.0,55.6,16.0,67,55,12,29.81,29.56,5,0,7,0.00
2014-6-18,87.0,74.9,66.0,71.0,33.1,-23.0,69,39,1,29.68,29.41,7,0,8,0.04
2014-6-19,86.0,72.9,59.0,67.0,39.9,-23.0,69,36,1,29.76,29.55,7,0,8,0.00
2014-6-20,80.0,64.4,53.0,56.0,45.8,39.0,76,54,24,29.78,29.56,4,0,4,0.00
2014-6-21,78.0,62.2,47.0,57.0,45.1,18.0,75,56,28,29.81,29.57,3,0,4,0.00
2014-6-22,82.0,63.7,48.0,61.0,41.9,-40.0,74,50,1,29.83,29.63,6,0,6,0.00
2014-6-23,86.0,67.0,50.0,64.0,33.4,-40.0,74,39,1,29.93,29.76,7,0,8,0.00
2014-6-24,85.0,70.4,58.0,67.0,54.1,4.0,75,59,10,29.95,29.69,8,0,8,0.00
2014-6-25,91.0,75.7,64.0,76.0,55.1,-6.0,72,55,6,29.75,29.50,8,0,8,0.00
2014-6-26,82.0,69.5,59.0,11.0,-22.4,-23.0,8,0,1,29.80,29.49,6,0,10,0.50
2014-6-27,82.0,67.4,56.0,69.0,18.2,-40.0,79,31,35,30.00,29.78,5,0,5,0.00
2014-6-28,91.0,70.0,53.0,72.0,30.3,-40.0,77,32,2,30.06,29.87,0,0,5,0.00
2014-6-29,90.0,72.6,56.0,71.0,40.3,-40.0,77,44,1,30.04,29.77,7,0,7,0.00
2014-6-30,91.0,75.6,62.0,70.0,61.1,49.0,75,62,38,29.84,29.57,6,0,6,0.00
2014-7-1,91.0,77.9,67.0,76.0,58.8,0.0,74,56,5,29.66,29.42,11,0,11,0.00
2014-7-2,93.0,77.8,69.0,81.0,36.2,-23.0,74,38,1,29.65,29.45,11,0,11,0.12
2014-7-3,92.0,74.8,68.0,79.0,1.3,-23.0,72,15,1,29.75,29.54,6,0,30,0.49
2014-7-4,72.0,66.7,62.0,-23.0,-23.0,-23.0,0,0,100,29.74,29.59,5,0,5,0.23
2014-7-5,80.0,67.7,55.0,62.0,20.1,-40.0,76,31,5,29.74,29.57,8,0,8,0.18
2014-7-6,85.0,72.7,60.0,65.0,56.2,50.0,77,59,32,29.77,29.54,8,0,10,0.06
2014-7-7,87.0,73.4,67.0,74.0,35.2,-23.0,72,41,4,29.60,29.33,6,0,6,0.04
2014-7-8,89.0,76.7,67.0,76.0,30.6,-23.0,70,36,13,29.51,29.34,7,0,7,0.05
2014-7-9,89.0,77.5,66.0,71.0,36.1,-23.0,71,37,1,29.67,29.35,9,0,9,0.04
2014-7-10,83.0,69.8,62.0,69.0,22.8,-23.0,75,33,2,29.91,29.67,4,0,4,0.03
2014-7-11,85.0,69.1,59.0,66.0,28.8,-23.0,75,37,1,30.00,29.83,5,0,6,0.02
2014-7-12,89.0,71.7,56.0,71.0,29.7,-40.0,74,36,4,30.01,29.79,5,0,5,0.01
2014-7-13,87.0,74.4,66.0,74.0,52.8,-23.0,74,56,3,29.84,29.58,12,0,15,0.02
2014-7-14,88.0,76.3,69.0,76.0,14.0,-23.0,73,25,4,29.62,29.51,8,0,8,0.01
2014-7-15,87.0,75.5,72.0,76.0,-7.5,-23.0,72,8,1,29.58,29.41,7,0,7,0.50
2014-7-16,74.0,70.0,64.0,-23.0,-23.0,-23.0,0,0,100,29.61,29.47,4,0,4,0.08
2014-7-17,83.0,69.5,60.0,70.0,25.9,-23.0,78,37,16,29.84,29.59,3,0,3,0.00
2014-7-18,86.0,68.7,56.0,69.0,23.3,-40.0,77,32,1,29.98,29.81,3,0,4,0.00
2014-7-19,78.0,67.2,57.0,69.0,17.5,-40.0,75,30,1,30.05,29.93,3,0,3,0.00
2014-7-20,86.0,67.9,59.0,65.0,21.0,-23.0,78,32,3,29.99,29.80,6,0,6,0.00
2014-7-21,87.0,69.2,57.0,70.0,23.8,-40.0,78,34,1,29.99,29.79,7,0,7,0.00
2014-7-22,93.0,75.4,60.0,76.0,34.0,-23.0,75,36,1,29.92,29.65,6,0,6,0.00
2014-7-23,92.0,79.1,69.0,78.0,37.1,-23.0,77,37,1,29.69,29.37,10,0,10,0.22
2014-7-24,80.0,70.4,62.0,66.0,13.6,-23.0,75,28,7,29.68,29.49,2,0,3,0.02
2014-7-25,85.0,68.4,54.0,67.0,43.4,-40.0,77,47,1,29.77,29.58,4,0,4,0.00
2014-7-26,85.0,71.0,59.0,69.0,26.8,-23.0,78,32,5,29.75,29.53,6,0,6,0.00
2014-7-27,76.0,70.1,65.0,55.0,-15.1,-23.0,50,4,3,29.64,29.36,9,0,10,0.30
2014-7-28,84.0,70.4,63.0,74.0,-5.2,-23.0,72,12,3,29.41,29.11,7,0,8,0.34
2014-7-29,80.0,67.2,58.0,68.0,24.1,-40.0,78,37,4,29.70,29.31,4,0,4,0.00
2014-7-30,80.0,66.4,58.0,69.0,23.1,-40.0,77,35,2,29.83,29.66,3,0,3,0.00
2014-7-31,82.0,68.7,56.0,69.0,22.6,-40.0,78,37,9,29.91,29.74,7,0,8,0.00
2014-8-1,86.0,70.8,61.0,74.0,19.0,-23.0,75,27,1,29.97,29.83,7,0,9,0.00
2014-8-2,73.0,67.1,61.0,61.0,8.0,-23.0,71,20,4,29.98,29.87,11,0,11,0.00
2014-8-3,75.0,65.0,57.0,65.0,9.0,-40.0,73,27,1,29.93,29.76,5,0,5,0.00
2014-8-4,90.0,71.0,59.0,73.0,2.1,-23.0,74,15,1,29.81,29.61,4,0,4,0.06
2014-8-5,91.0,74.4,63.0,74.0,23.5,-23.0,75,30,6,29.79,29.55,3,0,4,0.00
2014-8-6,85.0,72.1,63.0,72.0,33.3,-23.0,79,39,1,29.63,29.43,5,0,5,0.00
2014-8-7,81.0,65.5,55.0,65.0,51.2,18.0,79,62,21,29.73,29.53,2,0,4,0.00
2014-8-8,88.0,68.7,54.0,69.0,37.6,-40.0,78,41,3,29.79,29.61,3,0,3,0.00
2014-8-9,91.0,71.9,58.0,70.0,52.1,11.0,78,52,14,29.85,29.65,3,0,3,0.00
2014-8-10,89.0,71.6,57.0,72.0,44.6,-40.0,78,45,1,29.91,29.73,5,0,5,0.00
2014-8-11,91.0,72.2,58.0,71.0,36.8,-40.0,75,41,1,29.93,29.71,8,0,9,0.00
2014-8-12,82.0,70.7,60.0,67.0,38.8,-23.0,77,44,1,29.89,29.74,10,0,13,0.00
2014-8-13,70.0,65.0,60.0,52.0,-10.5,-23.0,53,8,4,29.75,29.36,13,0,13,1.91
2014-8-14,77.0,63.7,54.0,64.0,13.4,-40.0,74,30,2,29.66,29.44,4,0,4,0.23
2014-8-15,74.0,61.2,54.0,62.0,12.2,-40.0,75,35,3,29.70,29.55,3,0,4,0.00
2014-8-16,78.0,65.6,57.0,64.0,34.8,-40.0,76,42,1,29.74,29.59,5,0,5,0.00
2014-8-17,79.0,66.1,57.0,69.0,30.1,-40.0,77,45,2,29.66,29.45,4,0,4,0.00
2014-8-18,81.0,64.7,55.0,63.0,22.7,-40.0,76,37,4,29.68,29.45,6,0,7,0.00
2014-8-19,85.0,64.6,49.0,65.0,34.7,-40.0,74,43,3,29.75,29.53,1,0,2,0.00
2014-8-20,89.0,66.2,51.0,71.0,23.5,-40.0,77,37,1,29.85,29.62,6,0,6,0.00
2014-8-21,75.0,62.7,54.0,65.0,5.5,-40.0,71,22,1,29.88,29.77,3,0,3,0.11
2014-8-22,67.0,62.0,58.0,-23.0,-24.1,-40.0,0,0,100,29.89,29.83,0,0,0,0.13
2014-8-23,77.0,64.0,57.0,67.0,10.8,-40.0,75,28,1,29.92,29.79,3,0,3,0.00
2014-8-24,85.0,66.6,53.0,71.0,8.0,-40.0,75,26,2,29.95,29.76,0,0,1,0.00
2014-8-25,94.0,72.4,57.0,77.0,19.8,-40.0,74,27,2,29.93,29.71,0,0,0,0.00
2014-8-26,92.0,73.1,60.0,75.0,22.9,-23.0,74,29,4,29.93,29.70,4,0,4,0.00
2014-8-27,91.0,75.5,62.0,76.0,25.2,-23.0,73,30,1,29.77,29.47,6,0,8,0.00
2014-8-28,82.0,69.5,59.0,67.0,39.4,-23.0,80,46,1,29.78,29.47,6,0,6,0.00
2014-8-29,82.0,64.1,53.0,65.0,45.1,-40.0,80,56,1,30.06,29.78,6,0,7,0.00
2014-8-30,81.0,65.7,53.0,65.0,16.6,-40.0,77,32,1,30.10,29.83,10,0,10,0.00
2014-8-31,84.0,72.8,64.0,75.0,11.6,-23.0,75,23,1,29.88,29.63,8,0,9,0.27
2014-9-1,90.0,75.7,68.0,77.0,13.4,-23.0,74,25,1,29.72,29.55,3,0,3,0.00
2014-9-2,91.0,76.8,69.0,79.0,1.8,-23.0,75,17,1,29.66,29.43,4,0,7,0.01
2014-9-3,87.0,73.2,65.0,70.0,26.2,-23.0,78,34,1,29.84,29.41,4,0,7,0.00
2014-9-4,87.0,71.4,56.0,73.0,38.4,-40.0,78,43,5,29.97,29.75,5,0,7,0.00
2014-9-5,90.0,75.6,63.0,75.0,39.8,-23.0,76,44,3,29.90,29.67,5,0,9,0.00
2014-9-6,90.0,76.3,64.0,79.0,8.9,-23.0,76,23,1,29.68,29.39,9,0,10,0.28
2014-9-7,83.0,66.7,55.0,67.0,18.5,-23.0,79,31,16,30.01,29.68,3,0,6,0.05
2014-9-8,79.0,62.0,51.0,66.0,18.7,-40.0,80,36,1,30.18,30.01,7,0,7,0.00
2014-9-9,73.0,59.8,50.0,63.0,17.8,-40.0,81,38,1,30.19,29.98,6,0,11,0.00
2014-9-10,74.0,62.4,55.0,64.0,2.7,-40.0,77,25,1,30.01,29.80,3,0,3,0.00
2014-9-11,73.0,66.6,59.0,36.0,-14.1,-23.0,32,4,1,29.83,29.48,8,0,11,0.00
2014-9-12,79.0,61.9,50.0,60.0,27.7,-40.0,83,46,1,30.06,29.67,4,0,6,0.00
2014-9-13,63.0,54.7,47.0,56.0,17.1,-40.0,80,42,3,30.13,29.90,3,0,3,0.15
2014-9-14,71.0,54.9,46.0,56.0,9.5,-40.0,81,37,7,30.06,29.88,4,0,5,0.01
2014-9-15,71.0,52.0,39.0,58.0,10.5,-40.0,82,32,1,30.11,29.84,4,0,4,0.00
2014-9-16,64.0,53.1,48.0,11.0,-34.7,-40.0,19,1,2,29.93,29.71,0,0,2,0.02
2014-9-17,77.0,57.1,45.0,64.0,9.4,-40.0,80,32,9,29.85,29.61,4,0,6,0.00
2014-9-18,78.0,58.5,46.0,65.0,21.1,-40.0,80,40,1,29.97,29.63,3,0,4,0.00
2014-9-19,67.0,49.5,38.0,44.0,30.7,-40.0,83,54,1,30.27,29.97,5,0,6,0.00
2014-9-20,70.0,53.9,34.0,61.0,35.6,-40.0,83,58,1,30.26,29.85,8,0,8,0.00
2014-9-21,76.0,66.0,54.0,31.0,-22.1,-40.0,36,2,1,29.87,29.30,7,0,7,0.68
2014-9-22,73.0,62.6,46.0,60.0,21.7,-23.0,84,39,1,29.92,29.28,7,0,7,0.00
2014-9-23,74.0,54.6,40.0,54.0,35.6,-40.0,83,53,2,30.25,29.92,6,0,9,0.00
2014-9-24,71.0,55.2,44.0,63.0,14.8,-40.0,82,41,1,30.42,30.25,4,0,7,0.00
2014-9-25,61.0,52.6,45.0,41.0,-5.6,-40.0,49,16,2,30.39,30.07,0,0,0,0.00
2014-9-26,84.0,60.7,46.0,70.0,6.5,-40.0,79,28,2,30.07,29.81,0,0,0,0.00
2014-9-27,92.0,66.5,51.0,73.0,9.9,-40.0,76,25,1,29.99,29.75,0,0,0,0.00
2014-9-28,92.0,69.0,54.0,76.0,10.2,-40.0,76,23,1,29.96,29.62,1,0,4,0.00
2014-9-29,84.0,63.4,56.0,71.0,-7.3,-40.0,79,16,3,29.83,29.60,1,0,4,0.00
2014-9-30,58.0,55.9,54.0,-40.0,-40.0,-40.0,0,0,100,29.85,29.78,0,0,0,0.04
2014-10-1,57.0,55.6,55.0,-40.0,-40.0,-40.0,0,0,100,29.92,29.81,0,0,0,0.25
2014-10-2,56.0,53.5,47.0,-40.0,-40.0,-40.0,0,0,100,30.00,29.92,0,0,0,0.14
2014-10-3,70.0,52.8,42.0,61.0,-12.5,-40.0,74,18,1,29.99,29.71,3,0,4,0.08
2014-10-4,61.0,56.1,51.0,-23.0,-32.7,-40.0,0,0,100,29.71,29.29,8,0,8,0.06
2014-10-5,67.0,52.5,42.0,53.0,2.7,-40.0,77,28,10,29.79,29.32,4,0,5,0.05
2014-10-6,70.0,51.9,36.0,52.0,8.4,-40.0,76,30,2,29.97,29.77,6,0,9,0.03
2014-10-7,75.0,60.1,46.0,62.0,3.9,-40.0,76,26,1,29.96,29.67,11,0,11,0.05
2014-10-8,74.0,63.2,55.0,61.0,20.3,-23.0,80,38,2,29.74,29.38,10,0,10,0.02
2014-10-9,66.0,53.8,42.0,45.0,38.1,4.0,83,58,23,29.83,29.59,8,0,8,0.00
2014-10-10,66.0,51.7,41.0,47.0,34.6,-23.0,81,55,6,29.97,29.75,6,0,6,0.00
2014-10-11,49.0,44.3,41.0,28.0,-25.7,-40.0,55,9,1,29.98,29.88,0,0,0,0.15
2014-10-12,69.0,47.6,34.0,56.0,-1.7,-40.0,78,26,2,30.16,29.93,4,0,4,0.00
2014-10-13,61.0,49.5,35.0,47.0,-0.3,-40.0,62,22,1,30.22,30.03,5,0,6,0.00
2014-10-14,77.0,64.6,54.0,66.0,2.0,-40.0,73,23,1,30.05,29.85,8,0,10,0.00
2014-10-15,81.0,68.2,61.0,70.0,1.3,-23.0,74,18,1,29.92,29.69,7,0,9,0.00
2014-10-16,70.0,66.9,60.0,-23.0,-23.0,-23.0,0,0,100,29.70,29.43,11,0,11,0.93
2014-10-17,73.0,62.2,56.0,62.0,9.1,-40.0,77,30,5,29.46,29.31,7,0,8,0.31
2014-10-18,69.0,59.6,54.0,60.0,2.2,-40.0,76,24,3,29.44,29.22,7,0,8,0.08
2014-10-19,59.0,49.9,39.0,47.0,38.4,28.0,85,65,41,29.81,29.39,10,0,10,0.01
2014-10-20,61.0,45.3,33.0,43.0,35.2,28.0,89,70,37,29.93,29.70,10,0,10,0.00
2014-10-21,65.0,51.8,43.0,59.0,15.5,-40.0,83,41,5,29.84,29.66,2,0,2,0.00
2014-10-22,51.0,48.6,46.0,-40.0,-40.0,-40.0,0,0,100,29.87,29.67,7,0,7,0.16
2014-10-23,51.0,48.4,46.0,-40.0,-40.0,-40.0,0,0,100,29.68,29.45,6,0,7,0.70
2014-10-24,52.0,48.4,43.0,-40.0,-40.0,-40.0,0,0,100,29.59,29.49,3,0,3,0.44
2014-10-25,68.0,52.7,41.0,54.0,9.1,-40.0,77,35,26,29.60,29.29,4,0,5,0.12
2014-10-26,59.0,50.7,44.0,48.0,37.0,8.0,82,62,18,29.54,29.24,8,0,8,0.04
2014-10-27,66.0,50.9,40.0,47.0,38.2,26.0,82,63,39,29.85,29.53,5,0,6,0.04
2014-10-28,69.0,50.2,37.0,56.0,13.3,-40.0,77,38,1,29.93,29.67,4,0,4,0.03
2014-10-29,70.0,54.2,47.0,53.0,-14.1,-40.0,78,16,5,29.76,29.49,4,0,4,0.03
2014-10-30,63.0,47.8,38.0,51.0,9.0,-40.0,83,41,6,29.86,29.64,5,0,5,0.02
2014-10-31,54.0,45.0,38.0,45.0,17.0,-40.0,84,49,1,29.90,29.77,3,0,3,0.02
2014-11-1,43.0,39.8,37.0,37.0,-5.1,-40.0,77,34,3,29.81,29.66,3,0,3,0.02
2014-11-2,40.0,37.7,36.0,33.0,5.6,-40.0,81,41,5,29.72,29.51,8,0,10,0.02
2014-11-3,56.0,41.2,32.0,35.0,20.0,8.0,86,45,16,29.92,29.70,8,0,8,0.02
2014-11-4,63.0,48.6,32.0,47.0,32.1,18.0,86,55,31,29.98,29.79,5,0,5,0.01
2014-11-5,64.0,52.6,40.0,47.0,40.1,31.0,85,65,33,29.97,29.73,7,0,8,0.02
2014-11-6,46.0,43.5,40.0,37.0,-3.2,-40.0,79,33,2,29.97,29.33,3,0,3,0.01
2014-11-7,47.0,42.0,35.0,39.0,0.7,-40.0,83,42,4,29.67,29.30,7,0,7,0.01
2014-11-8,51.0,38.6,28.0,33.0,28.4,23.0,89,69,33,29.83,29.66,4,0,5,0.01
2014-11-9,55.0,42.1,31.0,42.0,35.1,23.0,87,76,54,29.90,29.66,3,0,4,0.01
2014-11-10,62.0,42.1,29.0,45.0,20.6,-40.0,84,49,2,30.06,29.87,4,0,4,0.01
2014-11-11,64.0,46.7,30.0,57.0,9.6,-40.0,80,37,1,30.06,29.77,7,0,7,0.01
2014-11-12,67.0,53.4,38.0,59.0,4.0,-40.0,83,38,5,29.88,29.55,4,0,4,0.01
2014-11-13,54.0,40.9,29.0,38.0,28.7,16.0,86,63,36,29.98,29.77,2,0,4,0.01
2014-11-14,45.0,34.1,25.0,38.0,18.8,-40.0,91,59,8,30.01,29.71,4,0,5,0.01
2014-11-15,43.0,29.8,22.0,31.0,19.3,14.0,93,66,31,30.25,30.01,7,0,8,0.93
2014-11-16,43.0,32.2,21.0,32.0,26.0,18.0,98,78,47,30.30,29.98,5,0,5,0.17
2014-11-17,37.0,35.1,33.0,32.0,-19.4,-40.0,89,23,2,29.99,29.31,2,0,2,1.36
2014-11-18,37.0,30.4,23.0,31.0,-3.6,-40.0,83,34,3,29.83,29.33,10,1,10,0.01
2014-11-19,39.0,26.6,21.0,16.0,10.9,4.0,62,50,31,30.03,29.83,7,0,7,0.00
2014-11-20,45.0,32.5,24.0,24.0,19.1,14.0,83,57,35,29.96,29.57,11,0,14,0.00
2014-11-21,36.0,26.7,20.0,21.0,12.6,8.0,76,54,34,30.34,29.82,9,0,13,0.00
2014-11-22,42.0,30.9,16.0,21.0,14.2,8.0,100,52,24,30.36,29.91,8,0,10,0.00
2014-11-23,40.0,39.0,38.0,24.0,23.0,21.0,53,51,49,29.92,29.90,4,0,4,0.00
2014-11-24,65.0,62.1,59.0,-23.0,-23.0,-23.0,0,0,100,29.46,29.30,7,1,11,0.39
2014-11-25,62.0,53.7,38.0,53.0,12.7,-40.0,87,37,1,29.98,29.46,6,0,6,0.00
2014-11-26,43.0,36.0,31.0,37.0,0.6,-40.0,87,43,1,30.06,29.61,1,0,1,0.03
2014-11-27,34.0,30.9,28.0,-40.0,-40.0,-40.0,0,0,100,29.92,29.60,0,0,0,0.08
2014-11-28,37.0,27.1,18.0,32.0,-7.6,-40.0,92,42,10,30.15,29.89,4,0,4,0.21
2014-11-29,37.0,23.5,15.0,28.0,14.4,0.0,94,65,28,30.28,30.14,3,0,3,0.08
2014-11-30,54.0,39.9,25.0,47.0,18.1,-40.0,83,57,1,30.16,29.83,5,0,7,1.15
2014-12-1,60.0,46.7,34.0,52.0,39.4,16.0,89,77,33,30.34,29.79,5,0,6,0.09
2014-12-2,34.0,30.7,27.0,31.0,19.7,-40.0,92,72,2,30.62,30.29,4,0,4,0.00
2014-12-3,45.0,37.1,32.0,32.0,-32.9,-40.0,80,7,11,30.29,29.69,9,0,9,0.59
2014-12-4,44.0,32.4,22.0,31.0,24.6,11.0,91,73,41,30.48,29.96,8,0,9,0.00
2014-12-5,41.0,27.5,17.0,31.0,19.2,-40.0,90,72,2,30.63,30.34,2,0,2,0.00
2014-12-6,36.0,33.4,31.0,-40.0,-40.0,-40.0,0,0,100,30.34,30.02,0,0,0,1.19
2014-12-7,38.0,27.9,15.0,29.0,-4.2,-40.0,84,39,1,30.66,30.13,6,0,6,0.02
2014-12-8,22.0,17.4,11.0,21.0,14.9,8.0,98,87,70,30.74,30.44,2,0,2,0.00
2014-12-9,38.0,31.2,22.0,18.0,-29.6,-40.0,81,11,1,30.44,29.43,5,0,5,1.37
2014-12-10,37.0,36.1,35.0,-40.0,-40.0,-40.0,0,0,100,29.47,29.31,1,0,2,0.25
2014-12-11,35.0,32.1,29.0,-40.0,-40.0,-40.0,0,0,100,29.67,29.30,4,0,5,0.06
2014-12-12,41.0,32.0,28.0,32.0,-9.8,-40.0,68,24,1,29.77,29.66,2,0,4,0.01
2014-12-13,43.0,33.0,27.0,36.0,17.1,-13.0,80,55,11,29.77,29.61,3,0,7,0.00
2014-12-14,48.0,32.3,25.0,38.0,3.5,-40.0,81,40,1,29.82,29.59,3,0,4,0.00
2014-12-15,47.0,31.5,25.0,39.0,-4.8,-40.0,84,34,1,30.07,29.82,3,0,3,0.00
2014-12-16,36.0,32.1,26.0,8.0,-32.2,-40.0,28,4,1,30.07,29.81,0,0,0,0.01
2014-12-17,48.0,39.8,34.0,4.0,-36.9,-40.0,22,1,1,29.81,29.51,5,0,5,0.50
2014-12-18,42.0,37.2,33.0,36.0,13.7,-40.0,82,53,1,29.74,29.57,7,0,7,0.03
2014-12-19,35.0,30.4,23.0,31.0,25.9,14.0,89,83,68,30.07,29.74,5,0,6,0.00
2014-12-20,37.0,27.5,19.0,32.0,13.7,-40.0,87,61,2,30.24,30.07,2,0,2,0.00
2014-12-21,35.0,30.1,27.0,29.0,15.6,-13.0,82,56,12,30.26,30.17,0,0,0,0.00
2014-12-22,39.0,33.9,30.0,33.0,-8.6,-40.0,82,23,1,30.28,30.16,2,0,2,0.02
2014-12-23,42.0,38.2,34.0,-40.0,-40.0,-40.0,0,0,100,30.16,30.03,3,0,3,0.22
2014-12-24,41.0,38.8,37.0,-40.0,-40.0,-40.0,0,0,100,30.04,29.41,1,0,1,0.41
2014-12-25,56.0,45.1,37.0,42.0,-1.2,-40.0,72,35,24,29.83,29.27,9,0,9,0.28
2014-12-26,50.0,40.2,32.0,39.0,29.7,11.0,74,65,33,30.04,29.82,7,0,7,0.00
2014-12-27,55.0,41.2,32.0,42.0,25.5,0.0,74,54,20,30.09,29.84,8,0,8,0.00
2014-12-28,51.0,43.9,36.0,43.0,26.2,-40.0,81,63,1,29.85,29.55,8,0,8,0.00
2014-12-29,46.0,31.5,22.0,32.0,21.0,8.0,87,65,37,30.15,29.85,7,0,7,0.00
2014-12-30,33.0,21.3,13.0,16.0,8.7,-6.0,90,57,28,30.29,30.12,3,0,4,0.00
2014-12-31,31.0,17.4,10.0,16.0,10.4,4.0,100,73,37,30.28,30.06,7,0,7,0.00
2015-1-1,33.0,22.5,10.0,16.0,11.6,8.0,100,64,33,30.08,29.78,8,0,9,0.00
2015-1-2,38.0,30.1,23.0,21.0,17.6,14.0,78,59,45,30.36,29.83,12,0,12,0.00